Temp
8 9 8 9 9 9 9 9 10 9 9 8 8 9 9 9 9 9 9 9 9 8
8 8 8 8 8 8 8 8 7 7 7 8 8 9 8 9 8 8 8 8 8 7
8 7 7 7 7 7 7 7 7 7 6 7 7 7 8 8 7 7 7 7 6 6
7 7 7 7 6 6 5 6 6 6 5 6 7 7 7 6 6 6 6 6 6 5
7 7 7 7 6 5 6 5 6 6 6 6 6 6 6 6 6 6 5 5 5 6
7 7 7 7 6 6 6 6 5 5 5 6 6 6 5 5 5 5 5 5 5 5
7 7 7 7 7 6 6 6 6 6 6 5 5 5 5 5 4 5 5 5 5 4
7 7 7 7 7 6 6 6 5 5 5 5 5 5 5 5 5 5 4 4 4 4
7 7 7 7 6 6 6 5 5 5 5 5 5 5 5 5 4 4 4 4 4 4
7 7 7 7 7 6 6 6 6 6 5 5 4 4 4 4 4 4 4 3 3 3
7 6 6 5 5 5 5 5 5 5 4 4 4 4 4 4 4 3 3 3 3 2
6 6 6 6 5 5 5 4 4 4 4 4 4 4 3 3 3 3 3 2 2 1
5 5 5 5 5 5 4 4 4 4 4 3 3 3 3 2 2 2 1 1 0 0
6 5 5 4 4 4 4 4 3 3 3 2 2 2 2 1 0 -0 -0 -0 -0 -1
Height
1473 1476 1480 1483 1488 1491 1491 1496 1502 1507 1509 1513 1516 1517 1520 1523 1528 1529 1529 1528 1534 1535
1468 1472 1476 1479 1483 1488 1491 1493 1500 1505 1507 1510 1514 1516 1517 1519 1522 1525 1526 1527 1530 1533
1467 1470 1474 1476 1479 1484 1487 1491 1498 1500 1503 1505 1509 1510 1512 1514 1519 1523 1522 1525 1526 1529
1467 1469 1472 1473 1476 1482 1486 1489 1492 1495 1498 1501 1502 1505 1508 1511 1515 1519 1520 1521 1520 1523
1466 1467 1468 1470 1475 1481 1483 1486 1491 1494 1496 1497 1499 1503 1505 1509 1511 1514 1514 1517 1518 1520
1462 1465 1466 1469 1474 1477 1481 1485 1488 1491 1493 1495 1497 1500 1503 1505 1505 1509 1509 1513 1516 1517
1461 1462 1465 1468 1471 1474 1476 1481 1485 1488 1490 1494 1495 1496 1498 1500 1502 1505 1508 1511 1511 1513
1460 1461 1463 1466 1468 1471 1472 1478 1482 1484 1487 1489 1491 1492 1495 1496 1500 1501 1504 1505 1508 1510
1460 1461 1462 1464 1466 1469 1469 1474 1477 1479 1483 1485 1487 1489 1490 1492 1495 1498 1499 1502 1505 1505
1459 1461 1462 1463 1464 1468 1470 1472 1472 1476 1479 1482 1484 1486 1488 1490 1492 1494 1496 1498 1501 1502
1460 1460 1459 1463 1464 1467 1469 1469 1471 1473 1476 1479 1480 1483 1486 1488 1491 1492 1494 1494 1495 1497
1459 1459 1460 1461 1461 1464 1466 1468 1469 1472 1475 1477 1479 1481 1483 1486 1488 1489 1490 1491 1490 1492
1456 1457 1458 1460 1464 1465 1465 1468 1470 1472 1473 1474 1478 1480 1482 1483 1485 1486 1485 1484 1486 1486
1455 1455 1457 1459 1461 1463 1465 1466 1468 1471 1472 1473 1476 1477 1478 1480 1480 1480 1482 1482 1481 1481
Wind_Speed
32 30 33 29 34 32 31 25 23 24 22 21 19 19 17 15 17 19 18 13 16 14
30 33 33 32 33 31 27 28 25 23 20 19 18 17 19 19 18 17 15 16 15 14
21 24 24 26 27 29 26 31 28 26 24 23 21 19 18 16 18 18 17 17 15 16
20 19 19 18 19 23 22 22 23 21 20 18 17 17 17 17 19 19 18 18 17 15
15 15 15 16 16 22 20 20 21 19 21 20 17 19 19 20 21 22 19 15 14 14
12 14 14 15 17 17 19 20 21 20 20 20 18 20 23 22 18 15 14 14 16 14
8 9 11 15 14 17 18 18 18 19 19 21 20 18 15 14 15 15 16 16 14 14
6 7 8 10 13 18 19 21 23 22 21 20 18 17 15 14 16 16 15 14 13 14
3 5 6 7 7 9 15 21 17 17 16 19 17 16 15 16 16 15 14 14 14 14
6 8 9 9 11 13 13 14 15 17 18 17 16 15 14 15 15 15 13 13 13 13
4 6 7 9 10 10 10 11 12 13 14 14 13 13 14 14 14 13 13 13 13 13
2 3 4 5 5 6 7 8 9 10 10 11 11 11 12 13 13 13 13 13 13 16
4 4 5 5 5 5 5 6 7 7 8 9 10 11 12 12 11 12 16 19 22 24
4 4 4 5 6 7 7 7 7 7 6 7 9 10 12 14 17 18 21 23 23 19
Wind_Direction
207 197 197 201 195 193 187 185 194 201 198 198 201 198 198 209 219 219 229 227 222 223
216 206 215 211 208 203 198 196 205 201 193 197 208 224 216 216 219 226 228 228 230 231
225 222 221 220 217 214 208 202 221 223 219 216 216 210 214 225 230 233 234 234 237 249
234 225 219 217 218 217 215 215 239 216 210 206 209 224 230 227 229 232 239 247 244 239
226 222 220 218 224 224 223 218 210 211 220 220 233 239 232 229 238 243 238 235 234 233
225 229 230 234 229 223 224 224 230 224 222 229 221 238 238 242 234 231 227 226 230 228
222 228 230 232 234 232 222 219 217 212 211 224 243 235 223 221 225 222 224 226 227 229
202 202 201 217 227 229 229 222 219 220 228 240 231 223 223 222 224 223 225 227 231 234
200 215 203 198 206 211 223 229 229 232 227 223 226 222 220 222 224 224 226 228 232 235
188 196 196 201 199 203 204 207 209 216 219 225 222 222 224 223 223 225 226 229 233 241
192 192 188 189 189 196 200 200 204 208 212 215 217 218 220 223 225 225 227 234 242 245
218 196 204 206 204 212 213 206 204 209 216 220 221 222 226 228 229 231 236 239 244 249
209 189 179 181 195 200 197 201 209 218 221 222 225 224 227 231 234 242 253 254 262 267
269 244 236 225 212 201 197 203 208 211 212 218 220 227 232 245 250 250 258 266 271 266